Location: Nairn
(57.5833°N, 3.8667°W)
Time: 03:21:57
(UTC+00:00)

Cosmos 1271 Rocket - Visible Passes

Search period start: 25 November 2020 00:00
Search period end: 05 December 2020 00:00
Orbit: 497 x 546 km, 81.2° (Epoch: 24 November)

Date Brightness Start Highest point End Pass type
(mag) Time Alt. Az. Time Alt. Az. Time Alt. Az.
25 Nov 5.3 06:43:34 10° NNE 06:46:03 16° NE 06:48:29 10° E visible
26 Nov 5.4 06:30:30 10° NNE 06:32:47 15° NE 06:35:05 10° E visible
27 Nov 5.4 06:17:26 10° NNE 06:19:32 14° NE 06:21:38 10° E visible
28 Nov 5.5 06:04:23 10° NNE 06:06:17 13° NE 06:08:10 10° E visible
29 Nov 5.5 05:51:23 10° NNE 05:53:01 12° NE 05:54:39 10° ENE visible
29 Nov 3.0 07:25:59 10° NNW 07:29:46 67° ENE 07:33:35 10° SSE visible
30 Nov 5.6 05:38:25 10° NNE 05:39:45 11° NE 05:41:04 10° ENE visible
30 Nov 3.2 07:12:47 10° N 07:16:34 61° ENE 07:20:22 10° SSE visible
01 Dec 5.7 05:25:33 10° NE 05:26:29 11° NE 05:27:24 10° ENE visible
01 Dec 3.4 06:59:36 10° N 07:03:22 55° ENE 07:07:09 10° SSE visible
02 Dec 3.6 06:46:25 10° N 06:50:09 50° ENE 06:53:54 10° SSE visible
03 Dec 3.7 06:33:14 10° N 06:36:56 45° ENE 06:40:40 10° SE visible
04 Dec 3.9 06:20:04 10° N 06:23:43 41° ENE 06:27:24 10° SE visible
